User: anonymous   Login
Location: Bruch
(44.2051°N, 0.4120°E)
Time: 21:18:30
(UTC+00:00)
Language:

CZ-4C R/B - Orbit

View from above orbital plane
View from above orbital plane
View from above satellite
View from above satellite

Ground track
Ground track

The orbit data is extracted from the following two-line orbital elements,

1 36416U 10009D   21055.46161202 -.00000070  00000-0  18576-4 0  9994
2 36416  63.4195 243.2990 0519877 355.4749   4.1681 13.69587422548861
Epoch (UTC): 24 February 2021 11:04:43
Eccentricity: 0.0519877
inclination: 63.4195°
perigee height: 617 km
apogee height: 1384 km
right ascension of ascending node: 243.2990°
argument of perigee: 355.4749°
revolutions per day: 13.69587422
mean anomaly at epoch: 4.1681°
orbit number at epoch: 54886

The dashed part of the orbit path shows where the satellite is in the earth's shadow,  

DLR